SL-16 DEB, 24299

Orbit data source: Space-Track

SL-16 DEB, 24299 is space debris in LEO originally from a launch on Wed, 04 Sep 1996 UTC launched from the Tyuratam Missile And Space Complex (TTMTR). Debris objects in space refer to the collection of defunct objects orbiting the Earth. Examples of debris include non-operational satellites, rocket bodies, and fragments generated from explosions, collisions, or faulty payload assembly.

Loading next visibility...
Identifier
24299, 1996-051C
Orbit
LEO
Last TLE update
10 hours ago
Origin
Manufacturer
Yuzhnoe
Mission
Spacecraft
Bus & Motor
SEP MOTOR COVER, Unknown motor
Mass
~0 kg wet, ~1 kg dry
Launch date (UTC)
1996-09-04 (29 years ago)
Launch vehicle
Unknown
Launch site
Tyuratam Missile And Space Complex (TTMTR)
Object type
Payload
Rocket body
Debris
Shape & HBR
Unknown
Radar Cross Section
Small (<0.1 m²)

Expand to show TLE details & history

TLE from 10 hours ago
0 SL-16 DEB
1 24299U 96051C   25186.91330027  .00000097  00000-0  12640-3 0  9996
2 24299  71.0372  36.4892 0188885 151.5028 209.6561 13.75748864447096
Epoch: 2025-07-05T21:55Z
TLE epoch observation values (Epoch: 2025-07-05T21:55:09.143Z)
Latitude
-0.00002°
Longitude
143.55657°
Altitude
1,102.771 km
Speed
7.241 km/s
True Right ascension
02h 25m 57s
True Declination
0° 00' 00"
Sunlit
Object was in daylight at epoch
Visualization orbit readout
Latitude
-68.79664°
Longitude
80.9483°
Altitude
1,090.196 km
Speed
7.264 km/s
Apparent Right ascension
05h 57m 11s
Apparent Declination
-74° 21' 42"
Sunlit
Object is in full shadow
Visualization observer readout
Local Sidereal Time
19:56:59
Azimuth
167.123° S
Elevation
-52.849°
Doppler factor
1
Orbital elements
Apogee altitude
1,115.889 km
Perigee altitude
838.036 km
Semi-major axis
7,355.1 km
Eccentricity
0.01889
Inclination
71.0372°
RAAN
36.4892°
Arg. of periapsis
151.5028°
True anomaly
Unknown
Mean anomaly
209.6561°
Eccentric anomaly
Unknown
Mean motion
3.44081 °/min
Orbital period
104.63 mins
BSTAR
0.0001264
Loading maneuver chart data...
Loading SW <> Apogee altitude chart data...
Loading historical data...
Loading historical data...
Loading historical data...
Loading historical data...
Loading historical data...
Loading historical data...
Loading historical data...

SL-16 DEB Visibility forecast

Observer location: undefined°, undefined°

Span
Click to sort rows by Start time (UTC) header in descending order
Start Az.
Max El. time (UTC)
Max El. Az.
Max El.
End time (UTC)
End Az.
6 mins2025-07-06 13:45:14.024Z129.577° SE2025-07-06 13:48:14.024Z101.936° ESE15.158°2025-07-06 13:51:14.024Z71.717° E
11 mins2025-07-06 15:30:14.024Z206.878° SW2025-07-06 15:35:14.024Z325.185° NNW44.512°2025-07-06 15:41:14.024Z21.136° NNE
5 mins2025-07-06 17:21:14.024Z293.894° NW2025-07-06 17:23:14.024Z314.683° NW14.672°2025-07-06 17:26:14.024Z344.305° N
9 mins2025-07-07 00:41:14.024Z351.698° N2025-07-07 00:45:14.024Z81.86° E39.404°2025-07-07 00:50:14.024Z142.019° SSE
5 mins2025-07-07 02:29:14.024Z286.63° WNW2025-07-07 02:31:14.024Z261.353° W17.037°2025-07-07 02:34:14.024Z225.561° WSW
|